Fri, 22 Jan 2021 23:20:32 UTC

Information for RPM xstream-1.4.9-5.fc26.noarch.rpm

ID9490624
Namexstream
Version1.4.9
Release5.fc26
Epoch
Archnoarch
SummaryJava XML serialization library
DescriptionXStream is a simple library to serialize objects to XML and back again. A high level facade is supplied that simplifies common use cases. Custom objects can be serialized without need for specifying mappings. Speed and low memory footprint are a crucial part of the design, making it suitable for large object graphs or systems with high message throughput. No information is duplicated that can be obtained via reflection. This results in XML that is easier to read for humans and more compact than native Java serialization. XStream serializes internal fields, including private and final. Supports non-public and inner classes. Classes are not required to have default constructor. Duplicate references encountered in the object-model will be maintained. Supports circular references. By implementing an interface, XStream can serialize directly to/from any tree structure (not just XML). Strategies can be registered allowing customization of how particular types are represented as XML. When an exception occurs due to malformed XML, detailed diagnostics are provided to help isolate and fix the problem.
Build Time2017-04-12 10:30:57 GMT
Size512,498
3c7690678719fc7cd4320af6b0832860
LicenseBSD
Buildrootf26-build-8238042-731803
Provides
mvn(com.thoughtworks.xstream:xstream) = 1.4.9
mvn(com.thoughtworks.xstream:xstream:pom:) = 1.4.9
osgi(xstream) = 1.4.9
xstream = 1.4.9-5.fc26
Obsoletes No Obsoletes
Conflicts No Conflicts
Requires
java-headless >= 1:1.8
javapackages-tools
mvn(xpp3:xpp3)
mvn(xpp3:xpp3_min)
rpmlib(CompressedFileNames) <= 3.0.4-1
rpmlib(FileDigests) <= 4.6.0-1
rpmlib(PayloadFilesHavePrefix) <= 4.0-1
rpmlib(PayloadIsXz) <= 5.2-1
Recommends No Recommends
Suggests No Suggests
Supplements No Supplements
Enhances No Enhances
Files
1 through 10 of 10
Name ascending sort Size
/usr/share/doc/xstream4,096
/usr/share/doc/xstream/LICENSE.txt1,527
/usr/share/doc/xstream/README.txt1,122
/usr/share/java/xstream4,096
/usr/share/java/xstream.jar19
/usr/share/java/xstream/xstream.jar575,241
/usr/share/maven-metadata/xstream.xml8,426
/usr/share/maven-poms/xstream4,096
/usr/share/maven-poms/xstream.pom19
/usr/share/maven-poms/xstream/xstream.pom11,643
Component of
Page:
1 through 50 of 42925 >>>
Buildroot descending sort Created State
f26-build-12527833-916849 2018-05-26 05:25:15 expired
f26-build-12499252-914787 2018-05-23 06:48:23 expired
f26-build-12489864-914074 2018-05-21 17:10:41 expired
f26-build-12487463-913750 2018-05-21 11:05:50 expired
f26-build-12483927-913750 2018-05-21 04:13:01 expired
f26-build-12483926-913750 2018-05-21 04:13:00 expired
f26-build-12483925-913750 2018-05-21 04:13:00 expired
f26-build-12481965-913750 2018-05-21 00:17:15 expired
f26-build-12481575-913750 2018-05-20 23:20:52 expired
f26-build-12481570-913750 2018-05-20 23:20:32 expired
f26-build-12481569-913750 2018-05-20 23:20:30 expired
f26-build-12481568-913750 2018-05-20 23:20:29 expired
f26-build-12481567-913750 2018-05-20 23:20:15 expired
f26-build-12481566-913750 2018-05-20 23:20:09 expired
f26-build-12481564-913750 2018-05-20 23:20:08 expired
f26-build-12481561-913750 2018-05-20 23:19:56 expired
f26-build-12481560-913750 2018-05-20 23:19:47 expired
f26-build-12481559-913750 2018-05-20 23:19:47 expired
f26-build-12481558-913750 2018-05-20 23:19:38 expired
f26-build-12481557-913750 2018-05-20 23:19:36 expired
f26-build-12481556-913750 2018-05-20 23:19:27 expired
f26-build-12481555-913750 2018-05-20 23:19:26 expired
f26-build-12481554-913750 2018-05-20 23:19:19 expired
f26-build-12481553-913750 2018-05-20 23:19:18 expired
f26-build-12481551-913750 2018-05-20 23:19:08 expired
f26-build-12481550-913750 2018-05-20 23:19:07 expired
f26-build-12481549-913750 2018-05-20 23:18:59 expired
f26-build-12481548-913750 2018-05-20 23:18:57 expired
f26-build-12481547-913750 2018-05-20 23:18:51 expired
f26-build-12479955-913750 2018-05-20 20:59:00 expired
f26-build-12479947-913750 2018-05-20 20:58:43 expired
f26-build-12479131-913565 2018-05-20 18:41:50 expired
f26-build-12478553-913565 2018-05-20 17:27:31 expired
f26-build-12478076-913565 2018-05-20 16:45:26 expired
f26-build-12478075-913565 2018-05-20 16:45:26 expired
f26-build-12478072-913565 2018-05-20 16:45:26 expired
f26-build-12476930-913565 2018-05-20 13:45:46 expired
f26-build-12476477-913565 2018-05-20 12:36:50 expired
f26-build-12476330-913565 2018-05-20 12:24:26 expired
f26-build-12473184-913565 2018-05-20 07:22:56 expired
f26-build-12473180-913565 2018-05-20 07:22:44 expired
f26-build-12473179-913565 2018-05-20 07:22:42 expired
f26-build-12472942-913565 2018-05-20 06:49:10 expired
f26-build-12472065-913565 2018-05-20 05:19:09 expired
f26-build-12472064-913565 2018-05-20 05:19:09 expired
f26-build-12472063-913565 2018-05-20 05:19:02 expired
f26-build-12472035-913565 2018-05-20 05:16:02 expired
f26-build-12471544-913565 2018-05-20 04:32:56 expired
f26-build-12471538-913565 2018-05-20 04:32:54 expired
f26-build-12471451-913565 2018-05-20 04:23:10 expired